#timestamp,LO_Frequency,Hit,StdDev 
1607065215.7,286046999.6,N
1607065235.5,286046996.6,N
1607065255.3,286046996.7,N
1607065275.2,286046997.7,N
1607065295.0,286046996.9,N
1607065295.9,286046996.9,N
1607065315.7,286046996.7,N
1607065335.6,286046997.8,N
1607065355.4,286046997.9,N
1607065375.2,286046995.1,Y
1607065395.1,286046998.3,P
1607065396.0,286046998.3,P
1607065415.8,286046999.6,N
1607065435.7,286046999.0,N
1607065455.5,286046998.8,N
1607065475.3,286046999.4,N
1607065495.2,286046999.5,N
1607065515.9,286046998.4,N
1607065535.7,286046998.8,N
1607065555.6,286046998.4,Y
1607065575.4,286046998.4,P
1607065595.2,286047001.0,P
1607065615.1,286046998.4,N
1607065616.0,286046998.4,N
1607065635.8,286046998.7,N
1607065655.6,286046998.8,N
1607065675.5,286046998.7,N
1607065695.3,286047000.1,N
1607065715.1,286046999.9,N
1607065735.9,286047000.6,N
1607065755.7,286047000.6,N
1607065775.5,286046998.2,N
1607065795.4,286047001.2,N
1607065815.2,286046999.0,N
1607065835.0,286046999.4,N
1607065835.9,286046999.4,N
1607065855.8,286046999.5,N
1607065875.6,286046998.4,N
1607065895.4,286046999.0,N
1607065915.3,286046998.7,N
1607065935.1,286046996.5,Y
1607065955.8,286046996.6,P
1607065975.7,286046996.5,N
1607065995.5,286046998.4,N
1607066015.3,286046999.0,N
1607066035.2,286046998.3,N
1607066055.9,286046999.8,N
1607066075.7,286047001.2,N
1607066095.6,286046999.6,N
1607066115.4,286046998.3,N
1607066135.2,286046999.0,N
1607066155.1,286046996.6,N
1607066156.0,286046996.6,N
1607066175.8,286046999.5,N
1607066195.6,286046999.4,N
1607066215.5,286046999.0,N
1607066235.3,286046996.6,N
1607066255.1,286046999.2,N
1607066275.9,286046997.2,N
1607066295.7,286046996.6,N
1607066315.5,286046998.9,N
1607066335.4,286046999.6,N
1607066355.2,286046999.3,N
1607066375.0,286046996.9,N
1607066375.9,286046996.9,N
1607066395.8,286046997.7,N
1607066415.6,286046997.3,N
1607066435.4,286046996.6,N
1607066455.3,286046996.7,N
1607066475.1,286046996.7,N
1607066495.8,286046997.4,N
1607066515.7,286046997.2,N
1607066535.5,286046997.7,N
1607066555.3,286046997.9,N
1607066575.2,286046997.0,N
1607066595.0,286046996.6,N
1607066595.9,286046996.6,N
1607066615.7,286046996.5,N
1607066635.6,286046996.8,N
1607066655.4,286046994.9,Y
1607066675.2,286046998.3,P
1607066695.1,286047000.1,N
1607066696.0,286047000.1,N
1607066715.8,286046998.1,N
1607066735.6,286046998.2,N
1607066755.5,286046999.5,N
1607066775.3,286046997.7,N
1607066795.1,286046997.6,N
1607066815.9,286046999.4,N
1607066835.7,286046996.9,Y
1607066855.5,286046998.3,P
1607066875.4,286046998.6,P
1607066895.2,286046998.7,P
1607066915.0,286046998.9,Y
1607066916.0,286046998.9,P
1607066935.8,286047000.6,P
1607066955.6,286047002.8,P
1607066975.4,286047000.6,N
1607066995.3,286047000.3,N
1607067015.1,286047001.0,N
1607067035.8,286046998.9,N
1607067055.7,286046998.6,N
1607067075.5,286047001.5,N
1607067095.3,286047001.5,N
1607067115.2,286047003.0,N
1607067135.0,286047003.1,N
1607067135.9,286047003.1,N
1607067155.7,286047003.3,N
1607067175.6,286047004.2,N
1607067195.4,286047003.1,N
1607067215.2,286047003.9,N
1607067235.1,286047003.0,N
1607067236.0,286047003.0,N
1607067255.8,286047005.4,N
1607067275.6,286047005.7,N
1607067295.5,286047005.0,N
1607067315.3,286047005.8,N
1607067335.1,286047005.9,N
1607067355.9,286047003.3,N
1607067375.7,286047005.4,N
1607067395.5,286047005.7,N
1607067415.4,286047007.6,Y
1607067435.2,286047002.0,P
1607067455.0,286047001.5,P
1607067456.0,286047001.5,P
1607067475.8,286047002.4,Y
1607067495.6,286047000.3,P
1607067515.5,286047002.8,P
1607067535.3,286047002.4,N
1607067555.1,286047001.8,N
1607067575.9,286047003.7,Y
1607067595.7,286047001.5,P
1607067615.5,286047002.8,P
1607067635.4,286047001.5,N
1607067655.2,286047002.1,Y
1607067675.0,286047000.3,P
1607067675.9,286047000.3,N
1607067695.8,286047000.9,N
1607067715.6,286046999.8,N
1607067735.4,286047002.2,N
1607067755.3,286047003.7,Y
1607067775.1,286047002.0,P
1607067776.0,286047002.0,P
1607067795.8,286047002.5,P
1607067815.7,286047001.6,N
1607067835.5,286047001.6,N
1607067855.3,286047002.2,Y
1607067875.2,286046999.7,P
1607067895.9,286047001.8,N
1607067915.7,286047003.1,P
1607067935.6,286047003.3,N
1607067955.4,286047005.8,Y
1607067975.2,286047004.3,P
1607067995.1,286047006.0,P
1607067996.0,286047006.0,P
1607068015.8,286047003.5,N
1607068035.6,286047003.6,N
1607068055.5,286047003.9,N
1607068075.3,286047003.2,N
1607068095.1,286047005.9,Y
1607068115.9,286047000.4,P
1607068135.7,286047000.7,N
1607068155.5,286047000.1,N
1607068175.4,286047000.1,N
1607068195.2,286047001.6,N
1607068215.0,286047004.4,Y
1607068215.9,286047004.4,P
1607068235.8,286047001.5,N
1607068255.6,286047001.8,N
1607068275.4,286047003.9,Y
1607068295.3,286046999.7,P
1607068315.1,286047001.9,N
1607068316.0,286047001.9,N
1607068335.8,286047002.4,N
1607068355.7,286047000.3,N
1607068375.5,286047002.0,N
1607068395.3,286047001.4,N
1607068415.2,286047003.2,Y
1607068435.9,286047003.2,P
1607068455.7,286047003.5,P
1607068475.6,286047004.7,P
1607068495.4,286047006.5,Y
1607068515.2,286047001.3,P
1607068535.1,286047001.3,N
1607068536.0,286047001.3,N
1607068555.8,286047003.4,Y
1607068575.6,286047004.2,P
1607068595.5,286047004.2,P
1607068615.3,286047003.1,N
1607068635.1,286047003.1,Y
1607068655.9,286047001.8,P
1607068675.7,286047001.7,N
1607068695.5,286047002.2,N
1607068715.4,286047003.6,Y
1607068735.2,286047002.1,P
1607068755.0,286047002.0,P
1607068755.9,286047002.0,P
1607068775.8,286047000.2,N
1607068795.6,286046999.7,N
